SCP
0 1 1 1 0 0 0 1 1 1 1 2 1 1 1 1 1 1 1 0 0 0 0 0 1 1 1 1 1 1 1 1 1 1 1 1 1 1 1 1 1 1 1
0 1 1 0 0 1 1 1 1 2 2 2 1 1 1 1 1 1 0 0 0 0 0 1 1 1 1 1 1 1 1 1 1 1 1 1 1 1 1 1 1 1 1
1 1 1 0 0 1 1 2 2 2 2 2 1 1 1 1 1 1 1 0 0 0 0 1 1 1 1 1 1 1 1 1 0 0 0 1 1 1 1 1 1 1 1
1 1 1 0 0 0 1 1 2 2 2 1 1 1 1 1 1 1 1 1 1 1 1 1 1 1 1 1 0 0 0 0 0 0 0 0 1 1 1 1 1 1 1
1 1 1 0 0 0 0 1 1 1 1 1 1 1 1 1 1 1 1 1 1 1 1 1 1 1 1 1 0 0 0 0 0 0 0 0 0 1 1 1 1 1 1
1 1 1 0 0 0 0 0 1 1 1 1 1 1 1 1 1 2 2 2 1 1 1 1 1 1 1 1 0 0 0 0 0 0 0 0 0 0 0 1 1 1 1
0 0 0 0 0 0 0 0 1 1 1 1 1 1 1 1 2 2 3 2 2 1 1 1 1 1 1 1 0 0 0 0 0 0 0 0 0 0 0 1 1 1 1
0 0 0 0 0 0 0 0 1 1 1 0 0 0 1 1 1 2 2 2 1 1 1 1 1 1 1 1 0 0 0 0 0 0 0 0 0 0 0 1 1 1 1
0 0 0 0 0 0 0 0 0 1 0 0 0 0 0 1 1 1 1 1 1 1 1 1 1 1 1 1 1 1 1 0 0 0 0 0 0 0 0 1 1 1 1
0 0 0 0 0 0 0 0 0 0 0 0 0 0 0 0 1 1 1 1 1 1 1 1 1 1 1 1 1 1 1 0 0 0 0 0 0 0 0 1 1 1 1
0 0 0 0 0 0 0 0 0 0 0 0 0 0 0 0 0 1 1 1 1 1 1 1 1 1 1 1 1 1 0 0 0 0 0 0 0 0 0 0 1 1 1
0 0 0 0 0 0 0 0 0 0 0 0 0 0 0 0 0 1 1 1 1 1 1 1 1 1 1 1 1 0 0 0 0 0 0 0 0 0 1 1 1 1 1
0 0 0 0 0 0 0 0 0 0 0 0 0 0 0 0 1 1 1 1 1 1 1 1 1 1 1 1 0 0 0 0 0 0 0 0 1 1 1 1 1 1 1
0 0 0 0 0 0 0 0 0 0 0 0 0 0 0 0 1 1 1 1 1 1 1 1 1 1 1 1 0 0 0 0 0 0 0 0 1 1 1 1 1 1 1
1 1 0 0 0 0 0 0 0 0 0 0 0 0 0 0 1 1 1 1 1 1 1 1 1 1 1 1 1 1 0 0 0 0 0 0 0 1 1 1 1 1 1
1 1 1 0 0 0 0 0 0 0 0 0 0 0 0 0 0 0 1 1 1 1 1 1 0 0 0 1 1 1 0 0 0 0 0 0 0 0 1 1 1 1 1
1 1 1 1 0 0 0 0 0 0 0 0 0 0 0 0 0 0 0 1 1 1 0 0 0 0 0 1 1 0 0 0 0 0 0 0 0 0 0 1 1 1 1
1 1 1 1 1 1 0 0 0 0 0 0 0 0 0 0 0 0 0 0 0 0 0 0 0 0 1 1 1 0 0 0 0 0 0 0 0 0 0 0 1 1 1
1 1 1 1 1 1 1 1 1 0 0 0 0 0 0 0 0 0 0 0 0 0 0 0 0 0 1 1 1 0 0 0 0 0 1 1 0 0 0 0 0 0 0
1 1 1 1 1 1 1 1 1 1 1 0 0 0 0 0 0 0 0 0 0 0 0 0 0 0 1 1 1 1 1 0 0 0 1 1 1 0 0 0 0 0 0
1 1 1 1 1 1 1 2 1 1 1 1 1 0 0 0 0 0 0 0 0 0 0 0 0 0 1 1 1 1 1 1 0 0 1 1 1 1 0 0 0 0 0
1 1 1 1 1 2 2 2 2 2 1 1 1 1 0 0 0 0 0 0 0 0 0 0 0 0 1 1 1 1 1 0 0 0 0 1 1 1 0 0 0 0 0
1 1 1 1 1 1 2 2 2 2 2 1 1 1 1 0 0 0 0 0 0 0 0 0 0 0 1 1 1 1 1 0 0 0 0 0 1 1 0 0 0 0 0
1 1 1 1 1 1 2 2 2 2 2 2 1 1 1 1 0 0 0 0 1 1 0 0 0 0 1 1 1 1 1 0 0 0 0 0 0 0 0 0 0 0 0
1 1 1 1 1 1 1 1 2 2 2 2 1 1 1 1 1 1 1 1 1 1 1 1 1 1 1 1 1 1 1 1 0 0 0 0 0 0 0 0 0 0 0
1 1 1 1 1 1 1 1 1 1 1 2 1 1 1 1 1 1 1 1 1 1 1 1 1 1 1 1 1 1 1 1 1 0 0 0 0 0 0 0 0 0 0
Wind_Speed
3 4 6 5 6 7 7 7 8 8 8 8 7 7 8 8 8 9 8 8 8 8 9 9 9 9 9 10 9 9 9 8 8 8 7 7 6 6 6 5 3 4 6
3 4 6 6 7 9 8 9 9 8 8 8 8 8 8 8 8 8 8 8 8 9 9 9 9 9 9 10 9 9 9 9 10 9 7 6 7 7 7 6 6 6 7
4 5 5 6 7 9 9 10 9 9 9 8 8 8 8 8 8 8 8 8 8 9 9 9 9 9 9 9 10 10 10 10 9 7 3 5 7 9 8 7 7 7 7
5 5 6 7 7 8 8 9 9 9 9 8 8 9 8 8 7 7 8 8 9 9 9 9 9 9 9 9 10 10 10 10 8 4 4 7 7 10 9 8 8 8 8
5 5 8 7 7 8 8 9 9 10 10 9 9 9 9 8 7 7 9 9 10 10 9 9 9 9 9 9 10 11 11 9 7 5 8 7 8 10 10 10 10 9 9
5 6 8 7 8 8 9 9 10 10 10 10 9 9 9 9 10 10 11 11 11 10 10 9 9 10 10 11 11 11 11 8 5 8 7 7 8 10 11 11 11 10 10
6 6 7 8 8 9 9 9 10 10 10 10 10 10 10 10 12 12 12 12 12 11 11 11 11 11 11 11 11 11 10 7 8 8 7 8 9 11 11 11 11 11 11
6 6 7 8 8 9 9 9 10 10 10 11 11 11 11 12 12 12 12 12 12 12 12 12 12 12 12 12 11 11 10 7 8 8 8 9 11 11 12 12 12 12 12
5 5 5 6 8 9 9 10 10 11 11 11 11 12 12 12 12 12 12 12 12 13 13 13 12 12 12 12 11 11 10 8 7 6 8 8 11 11 12 12 13 12 12
5 5 5 6 6 6 8 10 10 10 11 11 11 11 10 10 10 10 11 12 12 12 12 12 12 12 12 12 11 10 7 4 8 8 6 8 11 11 12 12 13 13 12
5 5 5 5 5 5 6 8 7 8 8 7 9 8 5 6 8 8 12 12 12 12 12 12 12 11 10 10 10 7 5 5 7 7 7 11 11 11 12 12 12 13 13
5 5 5 5 5 5 4 4 4 5 5 5 6 6 5 6 7 7 11 11 11 11 11 11 9 7 4 6 7 4 4 6 6 6 8 11 11 11 11 11 11 12 12
5 4 4 4 4 4 3 3 2 3 3 4 5 6 5 5 4 5 4 5 6 6 6 6 5 5 6 5 5 5 6 5 5 6 9 12 11 11 12 11 11 11 12
5 4 4 4 4 3 3 3 2 2 3 3 3 5 4 3 3 4 3 4 4 3 4 4 4 6 7 7 7 7 7 5 5 5 8 12 12 11 11 11 11 11 11
5 4 4 3 3 3 3 2 2 2 2 3 2 3 4 3 4 4 4 3 4 4 4 4 5 6 6 7 7 7 8 7 7 6 6 12 12 12 11 11 11 11 11
5 4 4 4 3 3 3 2 2 2 2 2 2 2 4 3 3 3 4 4 4 4 4 4 5 5 5 5 7 7 7 7 7 6 6 8 12 12 12 12 11 11 11
5 4 4 3 3 3 3 2 2 2 2 2 2 2 3 3 3 3 3 3 3 3 4 4 5 4 4 5 6 7 6 7 6 6 6 5 6 11 13 12 12 12 11
5 5 5 3 3 3 3 2 2 2 2 2 2 1 3 3 4 3 3 3 3 3 3 3 3 3 4 4 4 4 5 5 7 6 6 6 5 5 9 12 12 12 11
4 4 5 4 4 3 2 2 2 2 2 2 2 1 2 2 3 3 2 2 3 2 2 2 3 3 4 4 4 4 4 5 5 5 6 7 6 5 5 8 10 11 11
4 4 4 5 4 4 3 3 3 2 2 2 1 2 2 1 2 3 2 2 2 2 2 2 3 2 3 2 3 4 4 4 4 5 5 5 5 6 6 6 5 7 10
4 5 4 5 5 4 3 3 3 3 2 2 2 2 3 2 2 2 2 2 2 2 2 2 2 3 2 1 2 2 3 3 4 3 3 4 5 5 5 5 4 4 4
5 5 5 5 5 5 3 3 2 2 2 1 1 2 2 2 2 2 3 2 2 2 2 2 2 1 1 0 0 0 1 3 2 3 3 3 3 3 4 4 4 4 4
6 6 5 5 5 5 5 3 3 3 2 3 2 2 2 2 3 2 2 2 2 2 2 2 2 2 1 1 1 2 1 1 2 2 3 2 3 2 2 3 3 4 4
6 5 6 5 5 6 5 4 4 3 3 3 2 2 2 2 2 3 3 3 3 2 3 3 3 2 1 1 1 1 2 2 1 1 2 2 2 2 2 2 2 3 3
5 5 5 5 5 6 6 5 5 4 3 2 3 3 3 2 3 3 3 3 3 3 3 3 3 2 2 1 1 1 0 0 2 1 0 1 1 1 1 1 1 2 2
3 4 4 5 5 6 6 6 6 5 4 4 4 3 3 3 3 4 3 3 3 3 3 3 3 3 3 2 2 2 1 1 1 1 1 0 0 1 1 1 0 1 1
Wind_Direction
57 54 54 51 54 54 69 77 82 85 81 74 70 71 72 75 79 79 79 78 77 76 75 72 68 67 67 66 66 67 68 69 72 73 74 72 70 68 66 62 58 90 79
73 69 66 54 61 63 76 83 81 79 76 74 72 73 72 75 79 80 80 79 80 80 78 72 69 68 67 66 66 68 69 67 68 68 74 86 81 70 64 58 44 60 70
82 78 83 65 67 65 70 80 80 75 75 74 74 73 72 75 78 81 84 81 82 82 79 71 66 67 68 68 67 68 69 67 67 64 64 74 81 72 62 62 65 69 68
86 78 74 73 73 69 71 75 75 74 76 76 76 74 71 69 74 83 87 83 81 85 81 74 68 65 65 67 67 69 68 65 63 47 65 62 67 69 63 64 66 71 69
89 81 81 76 77 75 75 75 76 75 74 76 76 73 70 66 66 84 93 85 82 83 82 76 72 65 65 67 68 68 66 64 61 55 60 60 63 64 63 65 64 69 69
96 87 85 79 81 80 79 77 76 74 74 75 74 73 70 66 68 85 90 84 80 77 77 77 75 71 70 72 72 69 65 59 62 61 59 60 65 66 64 66 67 69 68
98 92 91 81 82 82 81 79 77 77 76 76 74 73 72 71 72 81 82 81 77 74 73 76 78 75 73 72 70 67 63 52 59 62 60 60 63 66 66 68 70 71 68
102 95 97 93 84 82 81 78 76 77 76 74 73 72 72 72 73 76 76 78 77 74 73 73 75 73 71 70 69 66 58 44 69 64 63 62 62 66 67 67 69 71 68
104 100 102 106 105 97 84 78 76 75 74 74 73 74 75 75 75 75 76 77 76 74 72 71 71 72 71 70 68 66 60 48 60 62 64 62 62 66 68 68 70 71 69
111 105 103 101 100 101 98 86 80 77 75 76 76 76 79 87 84 80 83 76 76 75 74 72 70 70 71 70 66 63 56 56 62 63 59 65 64 67 70 69 70 71 69
120 115 111 108 102 99 96 98 97 93 86 95 91 87 92 89 86 84 74 76 77 77 75 73 72 73 78 79 67 58 53 58 63 58 57 60 64 68 69 71 72 72 71
130 123 117 114 112 107 99 101 96 92 94 86 85 86 76 76 78 83 87 82 82 82 82 76 76 81 70 76 81 70 61 62 61 61 60 57 61 66 68 72 73 73 71
132 122 119 116 113 111 111 104 98 96 91 83 82 89 84 83 96 91 91 98 91 87 80 84 83 67 66 64 56 60 56 53 55 57 57 53 58 64 67 70 72 72 70
140 137 129 122 122 119 112 110 111 106 101 94 92 88 87 82 82 82 83 78 74 75 76 72 72 72 67 66 63 61 61 57 56 59 58 51 54 61 66 69 70 70 70
157 154 145 143 134 118 106 110 118 100 91 100 96 98 91 88 88 88 82 78 77 79 81 75 72 69 63 60 58 59 59 60 59 60 65 57 54 58 63 68 66 66 69
174 165 154 159 143 130 126 127 117 107 109 103 102 98 94 92 92 89 88 83 76 75 72 76 75 71 67 64 63 61 58 59 56 56 60 68 60 55 58 63 63 64 70
179 170 160 158 151 148 137 125 126 134 131 116 107 104 96 91 96 97 88 88 84 84 87 78 79 72 74 77 72 63 59 53 55 55 55 58 70 65 56 55 58 62 68
185 175 167 170 168 164 155 154 151 146 142 133 128 110 100 103 99 93 92 91 98 92 86 84 84 83 83 75 72 65 65 59 52 49 56 59 55 62 68 56 56 57 62
193 192 180 168 174 164 154 158 159 156 157 158 149 136 127 118 116 111 94 97 104 100 93 90 79 80 84 78 81 74 64 59 51 49 55 54 57 55 65 74 66 56 56
191 195 186 167 178 156 162 166 157 164 165 163 163 162 134 131 128 118 127 122 109 111 105 102 95 90 83 84 85 78 70 70 56 46 45 52 50 53 52 56 71 73 61
188 191 180 180 174 166 168 176 174 175 176 163 159 160 151 160 143 133 145 130 131 118 113 119 115 118 115 100 112 106 102 79 60 57 44 47 57 52 52 52 47 45 80
189 191 184 188 178 176 179 180 180 172 176 149 148 157 163 167 161 164 172 155 151 139 147 138 142 144 113 110 314 215 151 133 96 64 58 48 45 51 46 47 51 42 39
193 190 187 189 183 184 181 175 164 162 175 167 166 166 181 191 183 188 184 173 173 179 165 174 180 180 149 122 357 331 328 52 95 109 70 57 45 34 41 36 41 42 45
194 191 187 186 187 185 185 186 187 186 182 178 175 165 178 184 190 192 188 187 188 192 186 195 196 200 208 188 118 350 345 9 305 124 132 98 65 37 24 29 30 38 41
190 190 189 185 188 188 188 187 202 198 188 175 173 174 181 180 192 190 197 201 201 202 204 208 201 215 221 245 242 219 194 209 278 306 85 114 129 93 51 30 36 47 48
173 181 183 186 186 187 191 198 201 197 193 185 190 189 193 192 195 197 201 209 211 212 210 213 218 213 229 236 247 242 241 248 251 270 274 246 331 91 117 81 45 63 50